Location: Goettingen
(51.5300°N, 9.9433°E)
Time: 12:36:55
(UTC+01:00)

ISS - Pass Details

Date: 27 November 2023
Orbit: 416 x 417 km, 51.6° (Epoch: 02 December)

Event Time Altitude Azimuth Distance (km) Brightness Sun altitude
Rises 18:14:44 0° 275° (W) 2,361 1.5 -17.5°
Reaches altitude 10° 18:16:50 10° 276° (W) 1,498 0.2 -17.8°
Maximum altitude 18:20:12 90° 9° (N) 423 -3.9 -18.3°
Enters shadow 18:20:41 64° 96° (E) 469 -3.9 -18.4°
